Flag for U.S.A. Weather past 2 weeks in Hollywood, Florida, U.S.A.

Now
78 °F

Passing clouds.


Feels Like: 80 °F
Forecast: 73 / 81 °F
Wind: 14 mph from Southeast

Location: Fort Lauderdale / Hollywood International Airport

Current Time: Mar 4, 2015 at 4:20:38 PM

Latest Report: Mar 4, 2015 at 3:53 PM


Visibility: 10 mi

Pressure: 30.09 "Hg

Humidity: 74%

Dew point: 69 °F

Location of HollywoodLocation

Historic Weather in Hollywood — Graph

°F

Hollywood temperature yesterday

Maximum temperature yesterday: 79 °F (at 11:53 AM)
Minimum temperature yesterday: 71 °F (at 4:53 AM)
Average temperature yesterday: 75 °F

Past Weeks' High & Low Weather Summary

 TemperatureHumidityPressure
High84 °F (Feb 26, 1:53 PM)100% (Feb 24, 5:53 AM)30.34 "Hg (Feb 24, 5:53 AM)
Low40 °F (Feb 20, 4:53 AM)23% (Feb 19, 2:53 PM)29.80 "Hg (Feb 26, 2:53 AM)
Average70 °F76%30.13 "Hg
* Reported Feb 17 2:53 PM — Mar 4 2:53 PM, Hollywood, Weather by CustomWeather, © 2015

Note: Actual official high and low records may vary slightly from our data, if they occured in-between our weather recording intervals... More about our weather records

Advertising

Hollywood weather history for previous 24 hours

 ConditionsComfort  
Time TempWeatherWind HumidityBarometerVisibility
2:53 PM
Wed, Mar 4
78 °FScattered clouds.16 mph74%30.10 "Hg10 mi
1:53 PM78 °FScattered clouds.16 mph74%30.12 "Hg10 mi
12:53 PM79 °FScattered clouds.17 mph72%30.14 "Hg10 mi
11:53 AM78 °FBroken clouds.18 mph76%30.16 "Hg10 mi
11:00 AM79 °FScattered clouds.15 mph74%30.18 "Hg10 mi
10:53 AM78 °FPartly sunny.17 mph76%30.18 "Hg10 mi
9:53 AM78 °FScattered clouds.16 mph74%30.18 "Hg10 mi
8:53 AM77 °FBroken clouds.15 mph77%30.17 "Hg10 mi
7:53 AM74 °FScattered clouds.12 mph85%30.14 "Hg10 mi
6:53 AM73 °FPassing clouds.13 mph84%30.12 "Hg10 mi
5:53 AM73 °FPassing clouds.13 mph84%30.11 "Hg10 mi
4:53 AM73 °FPassing clouds.14 mph88%30.09 "Hg10 mi
3:53 AM73 °FPassing clouds.12 mph88%30.09 "Hg10 mi
2:53 AM73 °FPassing clouds.13 mph88%30.09 "Hg10 mi
1:53 AM73 °FPassing clouds.15 mph88%30.10 "Hg10 mi
12:53 AM73 °FPassing clouds.15 mph84%30.12 "Hg10 mi
11:53 PM
Tue, Mar 3
74 °FPassing clouds.14 mph85%30.14 "Hg10 mi
10:53 PM74 °FPassing clouds.17 mph85%30.15 "Hg10 mi
9:53 PM74 °FPassing clouds.16 mph85%30.15 "Hg10 mi
9:02 PM75 °FPassing clouds.14 mph82%30.16 "Hg10 mi
8:53 PM75 °FPassing clouds.16 mph82%30.15 "Hg10 mi
7:53 PM75 °FPartly cloudy.15 mph82%30.14 "Hg10 mi
6:53 PM74 °FPartly cloudy.15 mph85%30.13 "Hg10 mi
5:53 PM75 °FScattered clouds.15 mph79%30.13 "Hg10 mi
4:53 PM76 °FPartly sunny.15 mph74%30.12 "Hg10 mi
Weather by CustomWeather, © 2015

See weather overviewHow to use our weather pages